Location: Table Mountain
(47.2500°N, 120.5778°W)
Time: 00:45:18
(UTC-07:00)

Envisat - Pass Details

Date: 09 October 2017
Orbit: 764 x 766 km, 98.2° (Epoch: 22 October)

Event Time Altitude Azimuth Distance (km) Brightness Sun altitude
Exits shadow 22:05:06 18° 257° (WSW) 1,820 5.3 -36.5°
Maximum altitude 22:05:58 19° 270° (W) 1,785 5.3 -36.6°
Drops below altitude 10° 22:09:28 10° 314° (NW) 2,308 6.2 -37.1°
Sets 22:12:30 0° 333° (NNW) 3,239 7.0 -37.5°
